Skip Page Navigation
NASA JPL Caltech
NASA Logo - Jet Propulsion Laboratory + View the NASA Portal
+ Center for Near-Earth Object Studies
JPL Home Earth Solar System Stars & Galaxies Technology
JPL Solar System Dynamics
BODIES ORBITS EPHEMERIDES TOOLS PHYSICAL DATA DISCOVERY FAQ SITE MAP
IMPORTANT: The SSD Announcement email list is now available. Major changes are coming in the near future, including possible hostname and/or URL changes. To be notified of such changes, subscribe to this email list.

Please visit this page for more details.


JPL Small-Body Database Browser
Search: [ help ]  
(2018 GW1)
Classification: Apollo [NEO]          SPK-ID: 3802434
Ephemeris | Orbit Diagram | Orbital Elements | Mission Design | Physical Parameters | Close-Approach Data ]

[ hide orbit diagram ]

For accurate long-term ephemerides, please instead use our Horizons system.This orbit viewer was implemented using two-body methods, and hence should not be used for determining accurate long-term trajectories (over several years or decades) or planetary encounter circumstances.


[ revert to old Java-based viewer ]

Orbital Elements at Epoch 2458600.5 (2019-Apr-27.0) TDB
Reference: JPL 2 (heliocentric ecliptic J2000)
 Element Value Uncertainty (1-sigma)   Units 
e .4752854090294542 0.00030002  
a 1.676994438138701 0.00089488 au
q .879943450667829 3.3671e-05 au
i 16.23503995343272 0.007393 deg
node 200.8482953120541 2.8151e-05 deg
peri 305.8606286044457 0.0041059 deg
M 191.5947542465998 0.15718 deg
tp 2458971.564130771103
(2020-May-02.06413077)
0.64333 TDB
period 793.2240262468197
2.17
0.63492
0.001738
d
yr
n .4538440441641166 0.00036327 deg/d
Q 2.474045425609574 0.0013202 au
  Orbit Determination Parameters
   # obs. used (total)      47  
   data-arc span      4 days  
   first obs. used      2018-04-11  
   last obs. used      2018-04-15  
   planetary ephem.      DE431  
   SB-pert. ephem.      SB431-N16  
   condition code      7  
   norm. resid. RMS      .38767  
   source      ORB  
   producer      Otto Matic  
   solution date      2018-Apr-15 06:25:45  

Additional Information
 Earth MOID = .00950461 au 
 Jupiter MOID = 2.66354 au 
 T_jup = 4.062 
[ show covariance matrix ]

Ephemeris | Orbit Diagram | Orbital Elements | Mission Design | Physical Parameters | Close-Approach Data ]

Physical Parameter Table
Parameter Symbol Value Units Sigma Reference Notes
absolute magnitude H 26.4   n/a MPO445229  

[ show close-approach data ]
Ephemeris | Orbit Diagram | Orbital Elements | Mission Design | Physical Parameters | Close-Approach Data ]
ABOUT SSD CREDITS/AWARDS PRIVACY/COPYRIGHT GLOSSARY LINKS
FirstGov
(server date/time)  
NASA Home Page
Site Manager:   Ryan S. Park
Webmaster  Alan B. Chamberlin